Weather in Grigoryevka

Russia / Orenburg Oblast     51°06′18″N   55°18′08″E
В апреле 2022 года жителям России запретили посещать сайт meteo.paraplan.net по решению Генеральной прокуратуры. Аудитория сайта уменьшилась в 10 раз. Владельцы сайта не видят смысла в поддержке погодного сервера в таких условиях. Сайт будет закрыт в октябре.
temp.,
°C
wind,
m/s
gust,
m/s
humid.,
%
clouds,
%
prec.,
mm/h
press.,
hPa
HPBL,
m
4 october, tue
tue423:00+10ese411290 0.0 1027219
02:00+8ese410290 0.0 1028191
05:00+7ese46312 0.0 1030100
08:00+6ese49326 0.0 1030167
11:00+12se792295 0.0 1031645
14:00+15se6817100 0.0 10311062
17:00+15se671678 0.0 10311121
20:00+11ese4102399 0.0 1031204
5 october, wed
wed523:00+9ese411268 0.0 1031213
02:00+8se4102880 0.0 1032203
05:00+7se51330100 0.0 1032248
08:00+8se5132895 0.0 1032320
11:00+12sse71120100 0.0 1031504
14:00+16sse7815100 0.0 1030895
17:00+17sse5916100 0.0 1029740
20:00+13se4820100 0.0 1028124
6 october, thu
thu623:00+13sse51320100 0.0 1027268
02:00+13sse71621100 0.0 1025371
05:00+12s71525100 0.0 1024373
08:00+11s71528100 0.0 1023387
11:00+14ssw81326100 0.0 1022596
14:00+16s71026100 0.0 1021663
17:00+14sw4936100 0.1 1021559
20:00+11sw4859100 0.2 1021356
7 october, fri
fri723:00+11s4667100 0.2 1020163
02:00+9sw478476 0.3 1019167
05:00+9w2373100 0.3 1019102
08:00+7w410805 0.0 1020429
11:00+10w676228 0.0 10201079
14:00+10wnw6757100 0.1 10201394
17:00+10wnw5850100 0.1 10201688
20:00+8wsw22595 0.0 102116
8 october, sat
sat823:00+7sw4660100 0.0 1020105
02:00+10wsw51158100 0.0 1019512
05:00+11wsw61275100 0.1 1018505
08:00+10w7138593 0.4 1019513
11:00+11wnw6106455 0.4 1021919
14:00+15nw8104554 0.0 10221911
17:00+13nw8105120 0.0 10231448
20:00+10wnw35640 0.0 102593